Location: Maccacari
(45.1333°N, 11.1333°E)
Time: 05:09:04
(UTC+00:00)

SR - Pass Details

Date: 28 January 2021
Orbit: 573 x 882 km, 66.7° (Epoch: 06 March)

Event Time Altitude Azimuth Distance (km) Brightness Sun altitude
Exits shadow 03:57:09 23° 5° (N) 1,564 ? -28.7°
Drops below altitude 10° 03:59:31 10° 21° (NNE) 2,341 ? -28.3°
Sets 04:02:13 0° 29° (NNE) 3,324 ? -27.8°
